{"data":{"norad_id":57310,"epoch":"2026-05-25T05:03:15.994656Z","epoch_age_seconds":66712,"freshness":"FRESH","line1":"1 57310U 23096W   26145.21060179  .00001070  00000+0  48400-4 0  9997","line2":"2 57310  43.0022 122.3149 0001178 266.2368  93.8349 15.27576448158752","mean_motion":15.27576448,"eccentricity":0.0001178,"inclination_deg":43.0022,"raan_deg":122.3149,"arg_perigee_deg":266.2368,"mean_anomaly_deg":93.8349,"bstar":4.84e-5,"rev_number":15875,"period_min":94.266967907586,"perigee_km":482.25148305106,"apogee_km":483.86798100112,"semimajor_km":6861.1967320261,"source":"CELESTRAK","updated_at":"2026-05-25T13:38:18.284782Z"}}